Regional Weather Roundup
Issued by NWS

Home | Current Version | Previous Version | Text Only | Print | Product List | Glossary Off
Versions: 1 2 3 4 5 6 7 8 9 10 11 12 13 14 15 16 17 18 19 20 21 22 23 24 25 26 27 28 29 30 31 32 33 34 35 36 37 38 39 40 41 42 43 44 45 46 47 48 49 50

214
ASUS45 KBOU 210107
RWRCO

WEATHER ROUNDUP FOR COLORADO
NATIONAL WEATHER SERVICE DENVER/BOULDER CO
700 PM MDT SUN AUG 20 2017

NOTE: "FAIR" INDICATES FEW OR NO CLOUDS BELOW 12000 FEET WITH NO
SIGNIFICANT WEATHER AND/OR OBSTRUCTIONS TO VISIBILITY.

COZ001>005-013-030-031-210200-
...NORTHWEST COLORADO...

CITY           SKY/WX    TMP DP  RH WIND       PRES   REMARKS
CRAIG          FAIR      75  40  28 SE7       30.13R
HAYDEN         FAIR      75  38  26 S3        30.19S
MEEKER         FAIR      81  34  18 N10       30.12R
RABBIT EARS PA FAIR      59  32  36 NW3       30.48S
STEAMBOAT SPGS MOCLDY    72  42  33 N7        30.20S
WALDEN         FAIR      64  34  32 W6        30.33R
$$

COZ006>008-011-210200-
...WEST CENTRAL VALLEYS...

CITY           SKY/WX    TMP DP  RH WIND       PRES   REMARKS
GRAND JUNCTION FAIR      91  34  13 W9        29.96S
MONTROSE       FAIR      80  47  31 SW12      30.08S
EAGLE          FAIR      84  31  14 NW7       30.14S
RIFLE          FAIR      86  32  14 NW15G23   30.03F
DELTA          FAIR      92  26   9 W8        30.00S
NUCLA          FAIR      79  34  19 SE14      30.14S
$$

COZ017>023-064>068-210200-
...SOUTHWEST COLORADO...

CITY           SKY/WX    TMP DP  RH WIND       PRES   REMARKS
DURANGO        FAIR      71  39  31 E8        30.21F
CORTEZ         PTSUNNY   73  48  41 CALM      30.11F
PAGOSA SPRINGS MOCLDY    69  34  27 W5        30.28S
TELLURIDE      CLOUDY    65  36  34 CALM      30.39F
WOLF CREEK PAS FAIR      48  32  53 S3        30.62F
$$

COZ009-010-012-014-032>034-037-058>063-210200-
...CENTRAL COLORADO...

CITY           SKY/WX    TMP DP  RH WIND       PRES   REMARKS
ASPEN          FAIR      73  38  27 VRB3      30.22S
BUENA VISTA    FAIR      69  37  29 E9        30.30S
COPPER MTN     MOCLDY    54  36  50 SE5       30.61S
BERTHOUD PASS  CLOUDY    41  36  81 SE14G26   30.65S
COTTONWOOD PAS CLOUDY    64  32  29 CALM      30.45S
GUNNISON       FAIR      75  37  25 NE12      30.22R
KREMMLING      FAIR      81  27  13 NW3       30.22S
LEADVILLE      FAIR      59  33  37 SE6       30.44S
MONARCH PASS   FAIR      52  32  46 E12       30.69S
SALIDA         FAIR      76  36  24 SE7       30.32S
SUNLIGHT       FAIR      61  27  27 W5        30.52R
WILKERSON PASS MOCLDY    50  32  50 SE6       30.59S
$$

COZ069>075-210200-
...SAN LUIS VALLEY/SANGRE DE CRISTO MOUNTAINS...

CITY           SKY/WX    TMP DP  RH WIND       PRES   REMARKS
ALAMOSA        FAIR      65  45  48 S10       30.25R
DEL NORTE      FAIR      70  37  29 SW9       30.27F
LA VETA PASS   NOT AVBL
SAGUACHE       FAIR      70  39  32 SE17      30.29R
$$

COZ035-036-038>040-210200-
...NORTHERN COLORADO FRONT RANGE...

CITY           SKY/WX    TMP DP  RH WIND       PRES   REMARKS
DENVER INTL AP MOCLDY    83  39  21 N8        30.08S
DMNS CITY PARK   N/A     81  32  17 N6        30.08S
AURORA         MOCLDY    80  42  26 E5        30.11R
FRONT RANGE AP MOCLDY    82  39  21 NE5       30.10S
ERIE MUNI ARPT FAIR      80  41  25 NW6       30.12S
BOULDER MUN AP FAIR      81  41  24 CALM      30.08S
CENTENNIAL     MOCLDY    81  41  24 SW6       30.13R
BROOMFIELD     MOCLDY    81  41  24 SW8       30.13R
FORT COLLINS   FAIR      81  50  33 E5        30.07F
LONGMONT       FAIR      85  46  25 N3        30.08S
$$

COZ041-046-047-076>085-087-088-210200-
...PIKES PEAK/PALMER DIVIDE AND SOUTHERN FOOTHILLS...

CITY           SKY/WX    TMP DP  RH WIND       PRES   REMARKS
COLO. SPRINGS  TSTM      69  48  47 NW31G40   30.23R
A. F. ACADEMY  FAIR      66  44  45 S22       30.22R
SCHRIEVER AFB  MOCLDY    70  42  36 W17G30    30.17S
CHEYENNE MTN   SHOWER    64  45  48 NW18G32   30.23R
ELLICOTT       NOT AVBL
FALCON         LGT RAIN  70  39  32 W20G32    30.24R
FORT CARSON    TSTM      68  48  49 NW31G41   30.14R
LIMON          FAIR      76  54  46 E6        30.09R
MONUMENT HILL  FAIR      70  39  32 SW5       30.24F
CANON CITY     PTCLDY    75  48  38 NW18G25   30.11R
WALSENBURG     FAIR      79  41  25 W9        30.12R
TRINIDAD       FAIR      74  44  34 W20       30.09F
$$

COZ042>045-048>051-090-091-210200-
...NORTHEAST COLORADO...

CITY           SKY/WX    TMP DP  RH WIND       PRES   REMARKS
GREELEY ARPT   FAIR      86  53  32 CALM      30.05S
AKRON          FAIR      84  53  34 E8        30.03S
BURLINGTON     FAIR      81  65  58 E6        29.99S
WRAY           NOT AVBL
YUMA           NOT AVBL
STERLING       FAIR      82  64  54 E6        29.98S
HOLYOKE        FAIR      82  66  57 E6        29.99R
FORT MORGAN    FAIR      82  55  38 NE6       30.03R
$$

COZ086-089-092>099-210200-
...SOUTHEAST COLORADO...

CITY           SKY/WX    TMP DP  RH WIND       PRES   REMARKS
PUEBLO         FAIR      87  48  25 SE7       30.01R
LA JUNTA       FAIR      84  58  40 NE6       29.97R
LAMAR          FAIR      84  63  49 SE8       29.92R
SPRINGFIELD      N/A     77  60  55 S12       30.00R
$$




USA.gov is the U.S. government's official web portal to all federal, state and local government web resources and services.